OZ0AJ-13 Weather Reports


time (UTC)temp
F
wind
direction
speed
knots
gust
knots
rain 1hr
in
rain 24hr
in
rain mn
in
humidity
%
barometer
mb
20260506151516 58 19 2.6 7.8 0.00 0.00 0.00 53 1010.9
20260506150532 58 19 2.6 7.8 0.00 0.00 0.00 52 1010.8
20260506145527 59 19 2.6 7.8 0.00 0.00 0.00 51 1010.7
20260506144523 61 19 2.6 7.8 0.00 0.00 0.00 49 1010.8
20260506143519 60 19 2.6 7.8 0.00 0.00 0.00 50 1010.9
20260506142535 57 19 2.6 7.8 0.00 0.00 0.00 53 1010.8
20260506141531 58 19 2.6 7.8 0.00 0.00 0.00 52 1010.8
20260506140527 60 19 2.6 7.8 0.00 0.00 0.00 49 1010.8
20260506135522 61 19 2.6 7.8 0.00 0.00 0.00 43 1010.9
20260506134518 60 19 2.6 7.8 0.00 0.00 0.00 43 1010.8
20260506133534 62 19 2.6 7.8 0.00 0.00 0.00 42 1010.9
20260506132530 62 19 2.6 7.8 0.00 0.00 0.00 41 1010.9
20260506131526 63 19 2.6 7.8 0.00 0.00 0.00 42 1010.8
20260506130521 65 19 2.6 7.8 0.00 0.00 0.00 40 1011.0
20260506125517 65 19 2.6 7.8 0.00 0.00 0.00 40 1010.9
20260506124533 64 19 2.6 7.8 0.00 0.00 0.00 43 1010.8
20260506123529 63 19 2.6 7.8 0.00 0.00 0.00 43 1011.0
20260506122525 63 19 2.6 7.8 0.00 0.00 0.00 44 1010.8
20260506121520 61 19 2.6 7.8 0.00 0.00 0.00 46 1011.0
20260506120516 59 19 2.6 7.8 0.00 0.00 0.00 48 1011.1
20260506115532 59 19 2.6 7.8 0.00 0.00 0.00 50 1011.1
20260506114528 58 19 2.6 7.8 0.00 0.00 0.00 51 1011.2
20260506113524 57 19 2.6 7.8 0.00 0.00 0.00 53 1011.2
20260506112520 56 19 2.6 7.8 0.00 0.00 0.00 52 1011.3
20260506111516 56 19 2.6 7.8 0.00 0.00 0.00 52 1011.2
20260506110532 56 19 2.6 7.8 0.00 0.00 0.00 54 1011.3
20260506105528 55 19 2.6 7.8 0.00 0.00 0.00 54 1011.4
20260506104523 54 19 2.6 7.8 0.00 0.00 0.00 55 1011.5
20260506103519 54 19 2.6 7.8 0.00 0.00 0.00 57 1011.5
20260506102534 54 19 2.6 7.8 0.00 0.00 0.00 59 1011.7
20260506101530 53 19 2.6 7.8 0.00 0.00 0.00 60 1011.7
20260506100525 53 19 2.6 7.8 0.00 0.00 0.00 60 1011.6
20260506095521 53 19 2.6 7.8 0.00 0.00 0.00 59 1011.7
20260506094517 53 19 2.6 7.8 0.00 0.00 0.00 62 1011.8
20260506093533 53 19 2.6 7.8 0.00 0.00 0.00 61 1011.8
20260506092529 52 19 2.6 7.8 0.00 0.00 0.00 61 1011.6
20260506091525 52 19 2.6 7.8 0.00 0.00 0.00 61 1011.9
20260506090520 52 19 2.6 7.8 0.00 0.00 0.00 63 1011.9
20260506085516 51 19 2.6 7.8 0.00 0.00 0.00 63 1011.8
20260506084532 51 19 2.6 7.8 0.00 0.00 0.00 64 1011.9
20260506083528 51 19 2.6 7.8 0.00 0.00 0.00 64 1011.8
20260506082524 51 19 2.6 7.8 0.00 0.00 0.00 65 1011.8
20260506081519 51 19 2.6 7.8 0.00 0.00 0.00 64 1011.7
20260506080515 50 19 2.6 7.8 0.00 0.00 0.00 65 1011.7
20260506073523 48 19 2.6 7.8 0.00 0.00 0.00 69 1011.8
20260506072518 48 19 2.6 7.8 0.00 0.00 0.00 71 1011.7
20260506071535 47 19 2.6 7.8 0.00 0.00 0.00 71 1011.6
20260506070530 47 19 2.6 7.8 0.00 0.00 0.00 72 1011.7
20260506051020 39 19 2.6 7.8 0.00 0.00 0.00 87 1011.6
20260506045032 38 19 2.6 7.8 0.00 0.00 0.00 88 1011.6
20260506044029 38 19 2.6 7.8 0.00 0.00 0.00 88 1011.5
20260506043024 38 19 2.6 7.8 0.00 0.00 0.00 88 1011.5
20260506042021 37 19 2.6 7.8 0.00 0.00 0.00 88 1011.6
20260506041016 37 19 2.6 7.8 0.00 0.00 0.00 88 1011.6
20260506040033 37 19 2.6 7.8 0.00 0.00 0.00 88 1011.6
20260506035029 37 19 2.6 7.8 0.00 0.00 0.00 88 1011.7
20260506034025 37 19 2.6 7.8 0.00 0.00 0.00 88 1011.7
20260506033021 37 19 2.6 7.8 0.00 0.00 0.00 87 1011.9
20260506032017 38 19 2.6 7.8 0.00 0.00 0.00 87 1011.9
20260506031033 38 19 2.6 7.8 0.00 0.00 0.00 87 1011.9
20260506030029 38 19 2.6 7.8 0.00 0.00 0.00 87 1012.1
20260506025025 38 19 2.6 7.8 0.00 0.00 0.00 86 1012.3
20260506024021 38 19 2.6 7.8 0.00 0.00 0.00 86 1012.3
20260506023017 38 19 2.6 7.8 0.00 0.00 0.00 86 1012.3
20260506022033 39 19 2.6 7.8 0.00 0.00 0.00 86 1012.3
20260506021030 39 19 2.6 7.8 0.00 0.00 0.00 86 1012.4
20260506020025 39 19 2.6 7.8 0.00 0.00 0.00 85 1012.3
20260506015021 39 19 2.6 7.8 0.00 0.00 0.00 85 1012.2
20260506014017 39 19 2.6 7.8 0.00 0.00 0.00 85 1012.1
20260506013033 39 19 2.6 7.8 0.00 0.00 0.00 85 1012.0
20260506012030 39 19 2.6 7.8 0.00 0.00 0.00 85 1012.0
20260506011026 39 19 2.6 7.8 0.00 0.00 0.00 85 1012.1
20260506010022 39 19 2.6 7.8 0.00 0.00 0.00 85 1012.1
20260506005018 40 19 2.6 7.8 0.00 0.00 0.00 85 1011.9
20260506004034 40 19 2.6 7.8 0.00 0.00 0.00 84 1012.1
20260506003030 40 19 2.6 7.8 0.00 0.00 0.00 84 1012.0
20260506002026 40 19 2.6 7.8 0.00 0.00 0.00 84 1012.0
20260506001022 40 19 2.6 7.8 0.00 0.00 0.00 84 1012.0
20260506000018 40 19 2.6 7.8 0.00 0.00 0.00 83 1012.1
20260505235034 41 19 2.6 7.8 0.00 0.00 0.00 83 1012.1
20260505234030 41 19 2.6 7.8 0.00 0.00 0.00 83 1012.3
20260505233027 41 19 2.6 7.8 0.00 0.00 0.00 83 1012.2
20260505232022 41 19 2.6 7.8 0.00 0.00 0.00 84 1012.4
20260505231019 41 19 2.6 7.8 0.00 0.00 0.00 84 1012.2
20260505230035 41 19 2.6 7.8 0.00 0.00 0.00 84 1012.2
20260505225030 41 19 2.6 7.8 0.00 0.00 0.00 84 1012.3
20260505224027 42 19 2.6 7.8 0.00 0.00 0.00 84 1012.3
20260505223022 42 19 2.6 7.8 0.00 0.00 0.00 84 1012.5
20260505222018 42 19 2.6 7.8 0.00 0.00 0.00 83 1012.4
20260505221035 43 19 2.6 7.8 0.00 0.00 0.00 83 1012.4
20260505220031 43 19 2.6 7.8 0.00 0.00 0.00 82 1012.2
20260505215027 43 19 2.6 7.8 0.00 0.00 0.00 82 1012.5
20260505214023 44 19 2.6 7.8 0.00 0.00 0.00 81 1012.4
20260505213019 44 19 2.6 7.8 0.00 0.00 0.00 81 1012.5
20260505212016 44 19 2.6 7.8 0.00 0.00 0.00 81 1012.5
20260505211032 44 19 2.6 7.8 0.00 0.00 0.00 81 1012.4
20260505210027 45 19 2.6 7.8 0.00 0.00 0.00 80 1012.4
20260505205024 45 19 2.6 7.8 0.00 0.00 0.00 80 1012.3
20260505204020 45 19 2.6 7.8 0.00 0.00 0.00 79 1012.3
20260505203016 46 19 2.6 7.8 0.00 0.00 0.00 78 1012.2
20260505202032 46 19 2.6 7.8 0.00 0.00 0.00 77 1012.2
20260505201028 46 19 2.6 7.8 0.00 0.00 0.00 77 1012.3
20260505200024 47 19 2.6 7.8 0.00 0.00 0.00 76 1012.1
20260505195020 47 19 2.6 7.8 0.00 0.00 0.00 76 1012.1
20260505194016 47 19 2.6 7.8 0.00 0.00 0.00 76 1012.1
20260505193032 48 19 2.6 7.8 0.00 0.00 0.00 77 1012.0
20260505192028 48 19 2.6 7.8 0.00 0.00 0.00 76 1011.9
20260505191024 49 19 2.6 7.8 0.00 0.00 0.00 74 1011.9
20260505190020 49 19 2.6 7.8 0.00 0.00 0.00 73 1011.8
20260505185016 50 19 2.6 7.8 0.00 0.00 0.00 71 1011.7
20260505184032 51 19 2.6 7.8 0.00 0.00 0.00 69 1011.8
20260505183028 53 19 2.6 7.8 0.00 0.00 0.00 65 1011.7
20260505182025 55 19 2.6 7.8 0.00 0.00 0.00 62 1011.9
20260505181021 55 19 2.6 7.8 0.00 0.00 0.00 61 1011.8
20260505180017 56 19 2.6 7.8 0.00 0.00 0.00 60 1011.8
20260505175033 56 19 2.6 7.8 0.00 0.00 0.00 58 1011.6
20260505174029 58 19 2.6 7.8 0.00 0.00 0.00 54 1011.7
20260505173026 58 19 2.6 7.8 0.00 0.00 0.00 55 1011.6
20260505172022 57 19 2.6 7.8 0.00 0.00 0.00 55 1011.7
20260505171018 57 19 2.6 7.8 0.00 0.00 0.00 56 1011.7
20260505170034 58 19 2.6 7.8 0.00 0.00 0.00 56 1011.7
20260505165030 58 19 2.6 7.8 0.00 0.00 0.00 55 1011.8
20260505164026 60 19 2.6 7.8 0.00 0.00 0.00 51 1011.6
20260505163022 60 19 2.6 7.8 0.00 0.00 0.00 49 1011.7
20260505162018 60 19 2.6 7.8 0.00 0.00 0.00 48 1011.7
20260505161035 60 19 2.6 7.8 0.00 0.00 0.00 50 1011.9
20260505153019 60 19 2.6 7.8 0.00 0.00 0.00 50 1011.7
20260505152035 60 19 2.6 7.8 0.00 0.00 0.00 51 1011.8